Location: Oulou
(10.7667°N, 12.5167°W)
Time: 02:28:51
(UTC+00:00)

Cosmos 1939 Rocket - Pass Details

Date: 20 September 2019
Orbit: 534 x 583 km, 97.4° (Epoch: 15 October)

Event Time Altitude Azimuth Distance (km) Brightness Sun altitude
Exits shadow 20:08:31 36° 162° (SSE) 856 3.5 -20.7°
Maximum altitude 20:09:59 81° 80° (E) 548 2.6 -21.0°
Drops below altitude 10° 20:13:50 10° 352° (N) 1,784 5.6 -22.0°
Sets 20:15:56 0° 351° (N) 2,671 6.5 -22.5°
